Time,TemperatureF,DewpointF,PressureIn,WindDirection,WindDirectionDegrees,WindSpeedMPH,WindSpeedGustMPH,Humidity,HourlyPrecipIn,Conditions,Clouds,dailyrainin,SoftwareType,DateUTC
2013-01-04 00:13:00,35.7,35.0,30.30,NNE,23,0.0,0.0,98,0.00,,,0.00,weatherlink.com 1.10,2013-01-04 08:13:00,
2013-01-04 00:28:00,35.4,35.0,30.30,NNE,23,0.0,0.0,98,0.00,,,0.00,weatherlink.com 1.10,2013-01-04 08:28:00,
2013-01-04 00:43:00,35.2,35.0,30.31,NNE,23,0.0,0.0,98,0.00,,,0.00,weatherlink.com 1.10,2013-01-04 08:43:00,
2013-01-04 00:58:00,35.0,35.0,30.31,NNE,23,0.0,0.0,98,0.00,,,0.00,weatherlink.com 1.10,2013-01-04 08:58:00,
2013-01-04 01:13:00,34.8,34.0,30.31,NNE,22,0.0,0.0,98,0.00,,,0.00,weatherlink.com 1.10,2013-01-04 09:13:00,
2013-01-04 01:28:00,34.8,34.0,30.31,NNE,23,0.0,0.0,98,0.00,,,0.00,weatherlink.com 1.10,2013-01-04 09:28:00,
2013-01-04 01:43:00,34.9,35.0,30.31,NNE,23,0.0,0.0,99,0.00,,,0.00,weatherlink.com 1.10,2013-01-04 09:43:00,
2013-01-04 01:58:00,34.8,35.0,30.31,NNE,22,0.0,0.0,99,0.00,,,0.00,weatherlink.com 1.10,2013-01-04 09:58:00,
2013-01-04 02:14:00,34.7,35.0,30.31,NNE,21,0.0,0.0,99,0.00,,,0.00,weatherlink.com 1.10,2013-01-04 10:14:00,
2013-01-04 02:28:00,34.5,34.0,30.31,NNE,21,0.0,0.0,99,0.00,,,0.00,weatherlink.com 1.10,2013-01-04 10:28:00,
2013-01-04 02:44:00,34.4,34.0,30.31,NNE,23,0.0,0.0,99,0.00,,,0.00,weatherlink.com 1.10,2013-01-04 10:44:00,
2013-01-04 02:59:00,34.1,34.0,30.31,NNE,23,0.0,0.0,98,0.00,,,0.00,weatherlink.com 1.10,2013-01-04 10:59:00,
2013-01-04 03:14:00,34.0,34.0,30.31,NNE,23,0.0,0.0,99,0.00,,,0.00,weatherlink.com 1.10,2013-01-04 11:14:00,
2013-01-04 03:29:00,33.8,34.0,30.30,NNE,21,0.0,0.0,99,0.00,,,0.00,weatherlink.com 1.10,2013-01-04 11:29:00,
2013-01-04 03:44:00,33.6,33.0,30.29,NNE,22,0.0,0.0,99,0.00,,,0.00,weatherlink.com 1.10,2013-01-04 11:44:00,
2013-01-04 03:59:00,33.6,33.0,30.29,NNE,23,0.0,0.0,99,0.00,,,0.00,weatherlink.com 1.10,2013-01-04 11:59:00,
2013-01-04 04:14:00,33.6,33.0,30.30,NNE,23,0.0,0.0,99,0.00,,,0.00,weatherlink.com 1.10,2013-01-04 12:14:00,
2013-01-04 04:29:00,33.5,33.0,30.30,NNE,21,0.0,0.0,99,0.00,,,0.00,weatherlink.com 1.10,2013-01-04 12:29:00,
2013-01-04 04:44:00,33.4,33.0,30.30,NNE,23,0.0,0.0,99,0.00,,,0.00,weatherlink.com 1.10,2013-01-04 12:44:00,
2013-01-04 04:59:00,33.3,33.0,30.30,NNE,21,0.0,0.0,99,0.00,,,0.00,weatherlink.com 1.10,2013-01-04 12:59:00,
2013-01-04 05:14:00,33.1,33.0,30.30,NNE,21,0.0,0.0,99,0.00,,,0.00,weatherlink.com 1.10,2013-01-04 13:14:00,
2013-01-04 05:29:00,32.9,33.0,30.30,NNE,23,0.0,0.0,99,0.00,,,0.00,weatherlink.com 1.10,2013-01-04 13:29:00,
2013-01-04 05:44:00,32.8,33.0,30.31,NNE,22,0.0,0.0,99,0.00,,,0.00,weatherlink.com 1.10,2013-01-04 13:44:00,
2013-01-04 05:59:00,32.5,32.0,30.30,NNE,21,0.0,0.0,98,0.00,,,0.00,weatherlink.com 1.10,2013-01-04 13:59:00,
2013-01-04 06:14:00,32.3,32.0,30.29,NNE,21,0.0,0.0,99,0.00,,,0.00,weatherlink.com 1.10,2013-01-04 14:14:00,
2013-01-04 06:29:00,32.2,32.0,30.30,NNE,21,0.0,0.0,99,0.00,,,0.00,weatherlink.com 1.10,2013-01-04 14:29:00,
2013-01-04 06:44:00,32.1,32.0,30.29,NNE,22,0.0,0.0,99,0.00,,,0.00,weatherlink.com 1.10,2013-01-04 14:44:00,
2013-01-04 06:59:00,32.0,32.0,30.30,NNE,22,0.0,0.0,99,0.00,,,0.00,weatherlink.com 1.10,2013-01-04 14:59:00,
2013-01-04 07:14:00,32.0,32.0,30.31,NNE,21,0.0,0.0,99,0.00,,,0.00,weatherlink.com 1.10,2013-01-04 15:14:00,
2013-01-04 07:29:00,31.8,32.0,30.31,NNE,21,0.0,0.0,99,0.00,,,0.00,weatherlink.com 1.10,2013-01-04 15:29:00,
2013-01-04 07:44:00,31.7,32.0,30.32,NNE,22,0.0,0.0,99,0.00,,,0.00,weatherlink.com 1.10,2013-01-04 15:44:00,
2013-01-04 07:59:00,31.8,32.0,30.32,NNE,22,0.0,0.0,99,0.00,,,0.00,weatherlink.com 1.10,2013-01-04 15:59:00,
2013-01-04 08:14:00,31.9,32.0,30.33,NNE,22,0.0,0.0,99,0.00,,,0.00,weatherlink.com 1.10,2013-01-04 16:14:00,
2013-01-04 08:29:00,32.1,32.0,30.33,NNE,21,0.0,0.0,99,0.00,,,0.00,weatherlink.com 1.10,2013-01-04 16:29:00,
2013-01-04 08:44:00,32.3,32.0,30.33,NNE,21,0.0,0.0,99,0.00,,,0.00,weatherlink.com 1.10,2013-01-04 16:44:00,
2013-01-04 08:59:00,32.7,33.0,30.33,NNE,22,0.0,0.0,99,0.00,,,0.00,weatherlink.com 1.10,2013-01-04 16:59:00,
2013-01-04 09:14:00,33.1,33.0,30.33,NNE,23,0.0,0.0,99,0.00,,,0.00,weatherlink.com 1.10,2013-01-04 17:14:00,
2013-01-04 09:29:00,33.7,34.0,30.34,NNE,21,0.0,0.0,99,0.00,,,0.00,weatherlink.com 1.10,2013-01-04 17:29:00,
2013-01-04 09:44:00,34.3,34.0,30.34,NNE,23,0.0,0.0,100,0.00,,,0.00,weatherlink.com 1.10,2013-01-04 17:44:00,
2013-01-04 10:00:00,35.1,35.0,30.34,NNE,23,0.0,0.0,100,0.00,,,0.00,weatherlink.com 1.10,2013-01-04 18:00:00,
2013-01-04 10:14:00,35.8,36.0,30.34,NNE,23,0.0,0.0,100,0.00,,,0.00,weatherlink.com 1.10,2013-01-04 18:14:00,
2013-01-04 10:29:00,36.7,37.0,30.33,NNE,23,0.0,0.0,100,0.00,,,0.00,weatherlink.com 1.10,2013-01-04 18:29:00,
2013-01-04 10:44:00,37.6,38.0,30.33,NNE,23,0.0,0.0,100,0.00,,,0.00,weatherlink.com 1.10,2013-01-04 18:44:00,
2013-01-04 10:59:00,39.1,39.0,30.32,NNE,23,0.0,0.0,100,0.00,,,0.00,weatherlink.com 1.10,2013-01-04 18:59:00,
2013-01-04 11:14:00,40.9,41.0,30.31,NNE,23,0.0,0.0,100,0.00,,,0.00,weatherlink.com 1.10,2013-01-04 19:14:00,
2013-01-04 11:29:00,42.1,42.0,30.30,NNE,23,0.0,0.0,100,0.00,,,0.00,weatherlink.com 1.10,2013-01-04 19:29:00,
2013-01-04 11:44:00,43.0,43.0,30.29,NNE,23,0.0,0.0,100,0.00,,,0.00,weatherlink.com 1.10,2013-01-04 19:44:00,
2013-01-04 12:00:00,43.8,44.0,30.28,NNE,23,0.0,0.0,100,0.00,,,0.00,weatherlink.com 1.10,2013-01-04 20:00:00,
2013-01-04 12:15:00,44.8,45.0,30.27,NNE,21,0.0,0.0,100,0.00,,,0.00,weatherlink.com 1.10,2013-01-04 20:15:00,
2013-01-04 12:30:00,45.8,46.0,30.26,NNE,21,0.0,1.0,99,0.00,,,0.00,weatherlink.com 1.10,2013-01-04 20:30:00,
2013-01-04 12:45:00,46.6,46.0,30.25,NNE,21,0.0,1.0,98,0.00,,,0.00,weatherlink.com 1.10,2013-01-04 20:45:00,
2013-01-04 13:00:00,47.0,46.0,30.25,NNE,22,0.0,0.0,97,0.00,,,0.00,weatherlink.com 1.10,2013-01-04 21:00:00,
2013-01-04 13:15:00,47.5,47.0,30.24,NNE,21,0.0,0.0,97,0.00,,,0.00,weatherlink.com 1.10,2013-01-04 21:15:00,
2013-01-04 13:45:00,47.9,47.0,30.23,NNE,21,0.0,0.0,96,0.00,,,0.00,weatherlink.com 1.10,2013-01-04 21:45:00,
2013-01-04 14:00:00,48.2,47.0,30.23,NNE,22,0.0,0.0,96,0.00,,,0.00,weatherlink.com 1.10,2013-01-04 22:00:00,
2013-01-04 14:15:00,48.3,47.0,30.22,NNE,22,0.0,0.0,96,0.00,,,0.00,weatherlink.com 1.10,2013-01-04 22:15:00,
2013-01-04 14:30:00,48.3,47.0,30.22,NNE,22,0.0,0.0,96,0.00,,,0.00,weatherlink.com 1.10,2013-01-04 22:30:00,
2013-01-04 14:45:00,48.2,47.0,30.21,NNE,21,1.0,1.0,96,0.00,,,0.00,weatherlink.com 1.10,2013-01-04 22:45:00,
2013-01-04 15:00:00,48.1,47.0,30.21,NNE,21,0.0,1.0,96,0.00,,,0.00,weatherlink.com 1.10,2013-01-04 23:00:00,
2013-01-04 15:15:00,47.9,47.0,30.21,NNE,22,1.0,1.0,96,0.00,,,0.00,weatherlink.com 1.10,2013-01-04 23:15:00,
2013-01-04 15:30:00,47.8,47.0,30.21,NNE,21,1.0,1.0,96,0.00,,,0.00,weatherlink.com 1.10,2013-01-04 23:30:00,
2013-01-04 15:45:00,47.7,47.0,30.21,NNE,22,1.0,1.0,96,0.00,,,0.00,weatherlink.com 1.10,2013-01-04 23:45:00,
2013-01-04 16:00:00,47.5,47.0,30.21,NNE,21,1.0,1.0,96,0.00,,,0.00,weatherlink.com 1.10,2013-01-05 00:00:00,
2013-01-04 16:15:00,47.3,46.0,30.21,NNE,22,1.0,1.0,96,0.00,,,0.00,weatherlink.com 1.10,2013-01-05 00:15:00,
2013-01-04 16:30:00,47.0,46.0,30.21,NNE,21,0.0,0.0,97,0.00,,,0.00,weatherlink.com 1.10,2013-01-05 00:30:00,
2013-01-04 16:45:00,46.6,46.0,30.21,NNE,21,0.0,1.0,97,0.00,,,0.00,weatherlink.com 1.10,2013-01-05 00:45:00,
2013-01-04 17:00:00,46.1,45.0,30.21,NNE,21,0.0,0.0,97,0.00,,,0.00,weatherlink.com 1.10,2013-01-05 01:00:00,
2013-01-04 17:15:00,45.6,45.0,30.22,NNE,22,0.0,0.0,97,0.00,,,0.00,weatherlink.com 1.10,2013-01-05 01:15:00,
2013-01-04 17:30:00,45.1,45.0,30.22,NNE,21,0.0,0.0,98,0.00,,,0.00,weatherlink.com 1.10,2013-01-05 01:30:00,
2013-01-04 17:45:00,44.5,44.0,30.23,NNE,21,0.0,0.0,98,0.00,,,0.00,weatherlink.com 1.10,2013-01-05 01:45:00,
2013-01-04 18:00:00,44.0,44.0,30.23,NNE,22,0.0,0.0,98,0.00,,,0.00,weatherlink.com 1.10,2013-01-05 02:00:00,
2013-01-04 18:15:00,43.5,43.0,30.23,NNE,21,0.0,0.0,98,0.00,,,0.00,weatherlink.com 1.10,2013-01-05 02:15:00,
2013-01-04 18:30:00,43.1,43.0,30.24,NNE,22,0.0,0.0,98,0.00,,,0.00,weatherlink.com 1.10,2013-01-05 02:30:00,
2013-01-04 18:45:00,42.6,42.0,30.24,NNE,21,0.0,0.0,98,0.00,,,0.00,weatherlink.com 1.10,2013-01-05 02:45:00,
2013-01-04 19:00:00,42.3,42.0,30.24,NNE,21,0.0,0.0,98,0.00,,,0.00,weatherlink.com 1.10,2013-01-05 03:00:00,
2013-01-04 19:15:00,41.9,41.0,30.24,NNE,22,0.0,0.0,98,0.00,,,0.00,weatherlink.com 1.10,2013-01-05 03:15:00,
2013-01-04 19:30:00,41.5,41.0,30.24,NNE,22,0.0,0.0,99,0.00,,,0.00,weatherlink.com 1.10,2013-01-05 03:30:00,
2013-01-04 19:45:00,41.2,41.0,30.24,NNE,21,0.0,0.0,99,0.00,,,0.00,weatherlink.com 1.10,2013-01-05 03:45:00,
2013-01-04 20:00:00,40.8,41.0,30.25,NNE,21,0.0,0.0,99,0.00,,,0.00,weatherlink.com 1.10,2013-01-05 04:00:00,
2013-01-04 20:15:00,40.5,40.0,30.25,NNE,21,0.0,0.0,99,0.00,,,0.00,weatherlink.com 1.10,2013-01-05 04:15:00,
2013-01-04 20:30:00,40.2,40.0,30.25,NNE,22,0.0,0.0,99,0.00,,,0.00,weatherlink.com 1.10,2013-01-05 04:30:00,
2013-01-04 20:45:00,39.9,40.0,30.25,NNE,21,0.0,0.0,99,0.00,,,0.00,weatherlink.com 1.10,2013-01-05 04:45:00,
2013-01-04 21:00:00,39.6,39.0,30.25,NNE,21,0.0,0.0,99,0.00,,,0.00,weatherlink.com 1.10,2013-01-05 05:00:00,
2013-01-04 21:30:00,39.0,39.0,30.25,NNE,22,0.0,0.0,99,0.00,,,0.00,weatherlink.com 1.10,2013-01-05 05:30:00,
2013-01-04 21:45:00,38.7,39.0,30.25,NNE,22,0.0,0.0,99,0.00,,,0.00,weatherlink.com 1.10,2013-01-05 05:45:00,
2013-01-04 22:00:00,38.3,38.0,30.26,NNE,21,0.0,0.0,99,0.00,,,0.00,weatherlink.com 1.10,2013-01-05 06:00:00,
2013-01-04 22:15:00,38.0,38.0,30.26,NNE,22,0.0,0.0,99,0.00,,,0.00,weatherlink.com 1.10,2013-01-05 06:15:00,
2013-01-04 22:30:00,37.8,38.0,30.27,NNE,22,0.0,0.0,99,0.00,,,0.00,weatherlink.com 1.10,2013-01-05 06:30:00,
2013-01-04 22:45:00,37.5,37.0,30.27,NNE,22,0.0,0.0,99,0.00,,,0.00,weatherlink.com 1.10,2013-01-05 06:45:00,
2013-01-04 23:00:00,37.1,37.0,30.27,NNE,22,0.0,0.0,99,0.00,,,0.00,weatherlink.com 1.10,2013-01-05 07:00:00,
2013-01-04 23:15:00,36.9,37.0,30.27,NNE,22,0.0,0.0,99,0.00,,,0.00,weatherlink.com 1.10,2013-01-05 07:15:00,
2013-01-04 23:30:00,36.6,36.0,30.26,NNE,22,0.0,0.0,99,0.00,,,0.00,weatherlink.com 1.10,2013-01-05 07:30:00,
2013-01-04 23:45:00,36.4,36.0,30.26,NNE,21,0.0,0.0,99,0.00,,,0.00,weatherlink.com 1.10,2013-01-05 07:45:00,